Location: *
(44.3925°N, 5.4708°E)
Time: 15:21:20
(UTC+00:00)

Daily predictions for brighter satellites

Satellite Brightness Start Highest point End
(mag) Time Altitude Azimuth Time Altitude Azimuth Time Altitude Azimuth
BREEZE-M DEB (TANK) 4.4 17:46:27 10° WNW 17:50:36 65° NNE 18:06:11 10° ESE
NOSS 3-4 (A) 4.4 18:01:40 10° NNW 18:08:07 40° NE 18:15:08 10° ESE
NOSS 3-4 (C) 4.5 18:01:46 10° NNW 18:08:13 40° NE 18:15:13 10° ESE
CSL-04 Rocket 3.9 18:05:57 10° SSE 18:11:26 82° WSW 18:17:02 10° NNW
CZ-4 R/B 2.1 18:07:50 10° S 18:11:38 58° W 18:15:32 10° NNW
Cosmos 1461 2.9 18:08:43 10° SSW 18:12:39 52° ESE 18:16:31 10° NE
YAOGAN 6 3.2 18:10:58 10° S 18:14:35 64° W 18:18:15 10° NNW
CSL-04 Debris 4.4 18:09:27 10° S 18:14:49 77° WSW 18:20:15 10° NNW
COSMO-SKYMED 1 3.5 18:10:40 10° N 18:14:56 55° WNW 18:19:11 10° SSW
NOSS 3-3 (A) 4.0 18:10:41 10° SW 18:16:35 89° SE 18:23:13 10° NE
NOSS 3-3 (C) 4.0 18:10:47 10° SW 18:16:41 88° SE 18:23:20 10° NE
Cosmos 1300 Rocket 3.5 18:13:08 10° S 18:17:25 77° E 18:21:45 10° NNE
Cosmos 2151 Rocket 3.5 18:14:36 10° S 18:19:00 78° E 18:23:25 10° N
COSMOS 2455 2.9 18:16:15 10° NNW 18:22:19 87° WSW 18:28:20 10° SSE
HJ-1C 3.8 18:20:06 10° SE 18:23:17 41° ENE 18:26:30 10° N
Cosmos 1378 3.2 18:21:53 10° N 18:25:40 86° W 18:29:25 10° S
CZ-2C R/B 4.4 18:25:01 10° NE 18:28:54 29° E 18:32:45 10° SSE
Cosmos 2074 Rocket 4.0 18:23:25 10° N 18:29:42 83° E 18:35:55 10° S
Cosmos 1707 3.6 18:29:22 10° NNE 18:32:49 29° ENE 18:36:17 10° SE
SL-16 R/B 4.0 18:31:56 10° N 18:35:04 15° NE 18:38:10 10° ENE
SJ-6B 3.9 18:32:17 10° SE 18:35:50 29° ENE 18:39:22 10° N
SPOT 3 Rocket 4.2 18:31:56 10° SE 18:36:32 34° ENE 18:41:09 10° N
Cosmos 2333 4.3 18:31:17 10° NNW 18:36:58 82° WSW 18:42:40 10° SSE
ADEOS Rocket 4.2 18:32:21 10° NE 18:38:39 29° E 18:45:10 10° SSE
Aureole 1 Rocket 3.1 18:33:31 10° NNW 18:38:52 84° ENE 18:42:51 10° SSE
MOS 1 4.3 18:35:12 10° SSE 18:40:48 62° ENE 18:46:26 10° N
Cosmos 2219 Rocket 2.1 18:37:29 10° NNW 18:43:06 77° ENE 18:48:42 10° SSE
Cosmos 1939 Rocket 3.0 18:42:07 10° S 18:45:57 72° WSW 18:49:50 10° NNW
COSMOS 2428 2.7 18:41:09 10° NNW 18:46:53 84° ENE 18:52:33 10° SSE
FREGAT/IRIS 2.4 18:45:12 10° SSE 18:47:56 57° ENE 18:50:41 10° N
Cosmos 2322 4.5 18:43:18 10° NNW 18:48:53 55° WSW 18:54:25 10° S
NOAA 11 4.4 18:43:40 10° S 18:49:09 77° WSW 18:54:41 10° NNW
ATLAS 2AS CENTAUR R/B 2.9 18:44:23 10° NW 18:52:08 85° NE 18:58:57 11° SE
Cosmos 2154 Rocket 3.9 18:46:17 10° N 18:52:30 75° E 18:58:41 10° SSE
CZ-2D R/B 4.3 18:49:54 10° S 18:53:34 47° W 18:57:15 10° NNW
Cosmos 2360 Rocket 4.2 18:49:56 10° NW 18:54:44 29° WSW 18:59:33 10° SSW
BREEZE-M DEB (TANK) 4.3 18:53:10 10° WSW 18:55:19 20° SSW 18:59:27 10° SSE
Cosmos 1371 Rocket 4.5 18:51:09 10° SSE 18:56:00 38° ESE 19:00:54 10° NE
Okean 1 Rocket 3.0 18:56:59 10° S 19:01:18 86° W 19:05:41 10° N
ASTEX 1 3.3 19:00:03 10° N 19:04:57 72° E 19:09:49 10° S
Resurs 01 Rocket 2.8 19:05:42 23° E 19:06:36 25° ENE 19:10:12 10° NNE
SL-8 Rocket 4.4 19:00:54 10° N 19:06:45 41° ENE 19:10:33 20° SE
SL-8 R/B 4.0 19:02:04 10° W 19:06:49 63° NNW 19:10:24 18° ENE
H-2A R/B 2.3 19:04:22 20° SE 19:07:26 46° ENE 19:12:13 10° N
Cosmos 2219 3.3 19:02:38 10° S 19:08:14 56° ESE 19:13:51 10° NNE
Cosmos 2227 Rocket 2.8 19:03:21 10° SSE 19:08:18 33° ESE 19:13:18 10° NE
Meteor 1-15 Rocket 4.3 19:04:00 10° S 19:09:35 56° E 19:15:18 10° NNE
GP-B 4.2 19:09:01 10° N 19:13:18 47° W 19:17:32 10° SSW
ARGOS 3.3 19:12:29 21° SE 19:15:53 53° ENE 19:21:07 10° N
BREEZE M DEB (TANK) 3.1 19:13:44 10° WNW 19:15:54 34° N 19:17:51 20° ENE
SAR-Lupe-2 4.2 19:13:52 10° N 19:17:25 57° WNW 19:20:54 10° SSW
Cosmos 1544 4.4 19:15:03 10° SSW 19:18:27 41° WNW 19:21:54 10° N
USA 186 1.9 19:16:24 20° S 19:18:36 78° W 19:22:03 10° NNW
ERBS 4.5 19:16:56 10° NNW 19:19:07 16° NNE 19:19:52 15° NE
Cosmos 2297 Rocket 2.5 19:13:52 10° S 19:19:09 42° ESE 19:24:27 10° NE
Cosmos 1437 Rocket 4.0 19:20:47 10° NNE 19:23:15 24° NE 19:23:15 24° NE
BREEZE-M DEB (TANK) 4.2 19:21:25 10° WNW 19:25:37 49° NNE 19:31:48 20° E
ISS -2.0 19:23:33 10° SSW 19:24:54 20° S 19:24:54 20° S
Cosmos 405 Rocket 2.5 19:26:20 47° SSE 19:27:07 60° E 19:30:47 10° NNE
Cosmos 1190 Rocket 4.0 19:22:26 10° NNW 19:27:44 67° ENE 19:30:01 34° SE
DELTA 2 R/B (1) 4.2 19:24:26 10° SW 19:29:28 35° SSE 19:30:21 33° SE
Cosmos 389 Rocket 2.5 19:31:36 10° NNW 19:35:01 74° W 19:35:42 53° SSW
Cosmos 1892 Rocket 3.4 19:32:27 10° N 19:36:56 86° E 19:38:37 38° SSE
Meteor 1-24 Rocket 4.2 19:32:45 10° N 19:38:17 44° ENE 19:39:27 40° ESE
MetOp-A 4.2 19:37:09 41° ESE 19:38:42 56° ENE 19:43:57 10° N
NOSS 0 Rocket 4.1 19:32:34 10° NNW 19:38:45 69° WSW 19:42:56 22° S
Cosmos 2333 Rocket 3.5 19:34:51 10° NW 19:40:03 37° WSW 19:45:16 10° S
Okean 1-7 Rocket 3.6 19:38:23 10° N 19:42:50 81° W 19:44:39 36° S
SL-24 R/B 4.2 19:46:07 58° E 19:46:32 61° ENE 19:51:20 10° N
In-Cosmos 22 4.2 19:43:56 10° NNW 19:49:17 74° W 19:52:32 25° S
Cosmos 2237 Rocket 2.2 19:44:30 10° NNW 19:50:13 79° WSW 19:52:31 38° SSE
Cosmos 2056 Rocket 3.6 19:49:28 10° SSW 19:54:54 82° WNW 20:00:21 10° NNE
Meteor 1-4 Rocket 3.1 19:52:09 10° NNW 19:55:34 55° W 19:55:34 55° W
CZ-2C R/B 3.0 19:55:02 56° SE 19:56:08 76° ENE 20:01:37 10° N
Meteor 2-5 Rocket 3.7 19:50:43 10° N 19:56:34 84° ENE 19:58:36 43° SSE
Cosmos 614 Rocket 4.3 19:53:08 10° NNW 19:58:18 64° WSW 20:00:10 38° S
Cosmos 1674 3.8 19:54:56 10° N 19:57:14 35° N 19:57:14 35° N
Cosmos 1980 4.0 19:53:43 10° NNW 19:59:18 63° WSW 20:01:33 36° S
NOSS 3-4 (A) 4.3 19:52:26 10° NW 19:59:23 59° WSW 20:03:35 27° S
NOSS 3-4 (C) 4.3 19:52:32 10° NW 19:59:29 59° WSW 20:03:39 28° S
Cosmos 407 Rocket 3.9 19:54:50 10° NNW 19:59:53 58° WSW 20:01:46 36° SSW
Terra 4.2 20:06:35 12° NE 20:06:35 12° NE 20:07:10 10° NNE
DMSP B5D2-2 4.2 20:01:30 10° NNE 20:06:03 57° ENE 20:06:03 57° ENE
Cosmos 1624 Rocket 4.4 20:01:57 10° SSW 20:07:05 62° WNW 20:12:15 10° NNE
Meteor 1-22 Rocket 4.2 20:10:16 55° SSE 20:11:38 76° E 20:17:46 10° NNE
Cosmos 1544 Rocket 4.0 20:16:56 61° W 20:17:07 61° W 20:21:34 10° N
Cosmos 1455 Rocket 3.9 20:16:22 34° SW 20:17:52 49° WNW 20:22:13 10° N
SL-08 R/B 4.4 20:12:17 10° N 20:18:48 83° E 20:19:54 64° SSE
ERS-1 Rocket 4.4 20:20:34 27° NNE 20:20:34 27° NNE 20:23:25 10° N
SL-16 R/B 2.1 20:14:33 10° NNW 20:20:07 72° NE 20:20:07 72° NE
Cosmos 1954 Rocket 4.0 20:16:01 10° NNW 20:21:15 77° WSW 20:21:17 77° WSW
Spot 2 Rocket 3.6 20:23:09 67° N 20:23:09 67° N 20:27:35 10° NNW
ADEOS Rocket 3.9 20:17:14 10° N 20:24:25 63° WNW 20:32:01 10° SSW
Cosmos 1140 Rocket 4.0 20:22:00 10° NNW 20:27:00 50° WSW 20:27:31 48° SW
Nadezhda 3 Rocket 4.4 20:32:10 47° NE 20:32:10 47° NE 20:36:46 10° NNE
Cosmos 2082 3.8 20:34:48 71° N 20:34:48 71° N 20:39:56 10° NNE
CZ-2C R/B 3.6 20:33:22 10° NNE 20:36:52 40° NNE 20:36:52 40° NNE
Resurs 01 Rocket 3.1 20:43:17 34° W 20:43:17 34° W 20:46:59 10° NNW
H-2A R/B 4.0 20:45:01 17° SW 20:47:06 22° W 20:50:58 10° NW
Cosmos 1821 Rocket 4.2 20:44:21 10° N 20:49:26 61° NNE 20:49:26 61° NNE
Cosmos 2227 Rocket 3.4 20:46:56 10° SW 20:52:14 40° WNW 20:57:36 10° NNE
Cosmos 2297 Rocket 3.8 20:58:14 10° WSW 21:03:17 33° NW 21:08:22 10° N
Terra 4.3 21:45:28 18° NNW 21:45:28 18° NNW 21:46:42 10° NNW
USA 234 4.2 22:00:33 41° N 22:00:33 41° N 22:05:25 10° NW
CZ-4C R/B 4.1 22:26:50 10° NNW 22:31:37 32° NNE 22:31:37 32° NNE
